Home   Weather   Galway   Past weeks

Flag for Ireland Past Weather in Galway, Ireland — Yesterday and Last 2 Weeks

Now
55 °F

Passing clouds.


Feels Like: 52 °F
Forecast: 48 / 56 °F
Wind: 12 mph from Southwest

Location: Shannon Airport

Current Time: Sep 29, 2016 at 2:45:12 AM

Latest Report: Sep 29, 2016 at 2:00 AM


Visibility: N/A

Pressure: 29.92 "Hg

Humidity: 88%

Dew Point: 52 °F

Location of GalwayLocation

Past Weather in Galway — Graph

°F

Galway Temperature Yesterday

Maximum temperature yesterday: 66 °F (at 9:30 AM)
Minimum temperature yesterday: 57 °F (at 12:00 AM)
Average temperature yesterday: 62 °F

High & Low Weather Summary for the Past Weeks

 TemperatureHumidityPressure
High66 °F (Sep 28, 9:30 AM)100% (Sep 14, 12:00 PM)30.33 "Hg (Sep 14, 12:00 PM)
Low45 °F (Sep 22, 2:30 AM)59% (Sep 19, 2:30 PM)29.53 "Hg (Sep 24, 4:00 PM)
Average57 °F85%30.00 "Hg
* Reported Sep 14 1:00 AM — Sep 29 1:00 AM, Galway, Weather by CustomWeather, © 2016

Note: Actual official high and low records may vary slightly from our data, if they occured in-between our weather recording intervals... More about our weather records

Advertising

Galway Weather History for the Previous 24 Hours

Scroll right to see more
 ConditionsComfort  
Time TempWeatherWind HumidityBarometerVisibility
1:00 AM
Thu, Sep 29
57 °FPassing clouds.17 mph82%29.95 "HgN/A
12:30 AM57 °FPassing clouds.20 mph82%29.95 "HgN/A
12:00 AM57 °FPassing clouds.21 mph82%29.95 "HgN/A
11:30 PM
Wed, Sep 28
57 °FPartly cloudy.20 mph88%29.95 "HgN/A
11:00 PM57 °FPassing clouds.22 mph88%29.95 "HgN/A
10:30 PM57 °FPassing clouds.17 mph88%29.95 "HgN/A
10:00 PM59 °FPassing clouds.22 mph82%29.95 "HgN/A
9:30 PM59 °FPartly cloudy.18 mph94%29.95 "HgN/A
9:00 PM59 °FPartly cloudy.18 mph94%29.95 "HgN/A
8:30 PM61 °FPassing clouds.21 mph94%29.95 "HgN/A
8:00 PM61 °FPassing clouds.21 mph100%29.95 "Hg2 mi
7:30 PM61 °FPassing clouds.21 mph100%29.92 "Hg2 mi
7:00 PM63 °FDrizzle. Partly sunny.20 mph94%29.95 "Hg2 mi
6:30 PM63 °FLight rain. Partly sunny.16 mph94%29.95 "HgN/A
6:00 PM63 °FRain. Partly sunny.16 mph94%29.95 "Hg2 mi
5:30 PM63 °FLight rain. Partly sunny.17 mph94%29.95 "HgN/A
5:00 PM64 °FLight rain. Partly sunny.24 mph83%29.98 "HgN/A
4:30 PM66 °FBroken clouds.18 mph78%29.98 "HgN/A
4:00 PM66 °FBroken clouds.22 mph78%29.98 "HgN/A
3:30 PM66 °FPartly sunny.22 mph78%30.01 "HgN/A
3:00 PM66 °FPartly sunny.23 mph78%30.01 "HgN/A
2:30 PM66 °FPartly sunny.21 mph78%30.01 "HgN/A
2:00 PM66 °FPartly sunny.18 mph83%30.01 "HgN/A
1:30 PM66 °FPartly sunny.23 mph83%30.04 "HgN/A
1:00 PM66 °FScattered clouds.17 mph83%30.07 "HgN/A
12:30 PM66 °FBroken clouds.13 mph88%30.07 "HgN/A
12:00 PM66 °FBroken clouds.14 mph88%30.09 "HgN/A
11:30 AM66 °FPartly sunny.13 mph88%30.09 "HgN/A
11:00 AM66 °FBroken clouds.14 mph88%30.09 "HgN/A
10:30 AM66 °FBroken clouds.14 mph88%30.09 "HgN/A
10:00 AM66 °FBroken clouds.12 mph88%30.09 "HgN/A
9:30 AM66 °FScattered clouds.13 mph88%30.09 "HgN/A
9:00 AM64 °FBroken clouds.14 mph88%30.09 "HgN/A
8:30 AM63 °FPartly sunny.10 mph94%30.09 "HgN/A
8:00 AM63 °FBroken clouds.9 mph94%30.09 "HgN/A
7:30 AM63 °FPartly cloudy.10 mph94%30.09 "HgN/A
7:00 AM63 °FLight rain. Passing clouds.10 mph94%30.09 "HgN/A
6:30 AM61 °FDrizzle. Mostly cloudy.12 mph100%30.12 "Hg5 mi
6:00 AM61 °FDrizzle. Overcast.7 mph100%30.12 "Hg4 mi
5:30 AM59 °FDrizzle. Mostly cloudy.5 mph94%30.12 "Hg4 mi
5:00 AM59 °FOvercast.8 mph94%30.12 "HgN/A
4:30 AM59 °FMostly cloudy.9 mph94%30.12 "HgN/A
4:00 AM61 °FOvercast.7 mph94%30.15 "HgN/A
3:30 AM59 °FLight rain. Mostly cloudy.10 mph94%30.15 "HgN/A
3:00 AM59 °FMostly cloudy.12 mph94%30.15 "HgN/A
2:30 AM59 °FDrizzle. Mostly cloudy.10 mph88%30.18 "Hg2 mi
2:00 AM57 °FPartly cloudy.7 mph94%30.18 "HgN/A
Weather by CustomWeather, © 2016

See weather overviewHow to use our weather pages